Weather History for Wayne, NE

Change the Weather History Date:

Tuesday, February 7, 2012

  Actual Average (KOFK) Record (KOFK)
Temperature  
Mean Temperature 28 °F 25 °F  
Max Temperature 31 °F 35 °F 71 °F (1987)
Min Temperature 24 °F 14 °F -23 °F (1895)
Degree Days  
Heating Degree Days 38 40  
Month to date heating degree days 286  
Since 1 July heating degree days 4308  
Cooling Degree Days 0 0  
Month to date cooling degree days 0  
Year to date cooling degree days 0  
Moisture  
Dew Point 24 °F    
Average Humidity 85    
Maximum Humidity 92    
Minimum Humidity 78    
Precipitation  
Precipitation 0.00 in 0.02 in 1.33 in (1928)
Month to date precipitation 0.17  
Year to date precipitation 0.76  
Snow  
Snow 0.00 in 0.30 in - ()
Month to date snowfall 1.6  
Since 1 July snowfall 18.9  
Snow Depth -    
Sea Level Pressure  
Sea Level Pressure 30.42 in    
Wind  
Wind Speed 13 mph (North)    
Max Wind Speed 16 mph    
Max Gust Speed 22 mph    
Visibility 10 miles    
Events Snow    
T = Trace of Precipitation, MM = Missing Value Source: NWS Daily Summary

Daily Weather History Graph

Daily Weather History Graph

Search for Another Location

Airport:

Trip Planner

Search our weather history database for the weather conditions in past years. The results will help you decide how hot, cold, wet, or windy it might be!

Date:

Astronomy

Feb. 07, 2012 Rise Set
Actual Time 7:35 AM CST 5:49 PM CST
Civil Twilight 7:05 AM CST 6:18 PM CST
Nautical Twilight 6:32 AM CST 6:52 PM CST
Astronomical Twilight 5:59 AM CST 7:24 PM CST
Moon 6:03 PM CST (2/7) 7:04 AM CST (2/7)
Length of Visible Light 11h 13m
Length of Day
10h 14m
Full, 100% of the Moon is Illuminated
Feb 7
Full
Feb 7
Full
Feb 14
Last Quarter
Feb 21
New
Feb 29
First Quarter

Hourly Weather History & Observations

Time (CST) Temp. Windchill Dew Point Humidity Pressure Visibility Wind Dir Wind Speed Gust Speed Precip Events Conditions
12:15 AM 30.4 °F 20.5 °F 28.4 °F 92% 30.27 in 10.0 mi North 12.7 mph 18.4 mph N/A   Overcast
12:35 AM 30.6 °F 21.8 °F 28.4 °F 92% 30.27 in 10.0 mi North 10.4 mph - N/A   Overcast
12:55 AM 30.7 °F 21.4 °F 28.8 °F 92% 30.28 in 10.0 mi North 11.5 mph - N/A   Overcast
1:15 AM 30.9 °F 22.8 °F 28.9 °F 92% 30.28 in 10.0 mi North 9.2 mph - N/A   Overcast
1:55 AM 31.1 °F 20.1 °F 28.9 °F 92% 30.29 in 10.0 mi North 16.1 mph 21.9 mph N/A   Overcast
2:15 AM 31.1 °F 20.9 °F 28.4 °F 90% 30.30 in 10.0 mi North 13.8 mph - N/A   Overcast
2:35 AM 30.9 °F 21.2 °F 28.4 °F 90% 30.31 in 10.0 mi North 12.7 mph 19.6 mph N/A   Overcast
2:55 AM 30.6 °F 19.4 °F 27.5 °F 88% 30.32 in 10.0 mi North 16.1 mph 20.7 mph N/A   Overcast
3:15 AM 30.2 °F 19.8 °F 27.5 °F 90% 30.32 in 10.0 mi North 13.8 mph 18.4 mph N/A   Overcast
3:35 AM 30.2 °F 20.2 °F 27.5 °F 90% 30.32 in 10.0 mi North 12.7 mph - N/A   Overcast
3:55 AM 30.2 °F 20.2 °F 27.5 °F 90% 30.32 in 10.0 mi North 12.7 mph - N/A   Overcast
4:15 AM 30.2 °F 19.3 °F 27.3 °F 89% 30.32 in 10.0 mi North 15.0 mph - N/A   Overcast
4:35 AM 30.0 °F 19.5 °F 27.1 °F 89% 30.33 in 10.0 mi North 13.8 mph 18.4 mph N/A   Overcast
4:55 AM 30.2 °F 19.3 °F 27.3 °F 89% 30.33 in 10.0 mi North 15.0 mph - N/A   Overcast
5:15 AM 30.0 °F 18.7 °F 27.1 °F 89% 30.34 in 10.0 mi North 16.1 mph 19.6 mph N/A   Overcast
5:35 AM 30.0 °F 20.5 °F 26.6 °F 87% 30.35 in 10.0 mi North 11.5 mph 20.7 mph N/A   Overcast
6:15 AM 29.7 °F 18.6 °F 26.2 °F 87% 30.37 in 10.0 mi North 15.0 mph - N/A   Overcast
6:35 AM 29.5 °F 19.3 °F 26.1 °F 87% 30.37 in 10.0 mi North 12.7 mph - N/A   Overcast
6:55 AM 29.3 °F 18.2 °F 25.9 °F 87% 30.38 in 10.0 mi North 15.0 mph 19.6 mph N/A   Overcast
7:15 AM 29.3 °F 19.6 °F 26.1 °F 88% 30.39 in 10.0 mi North 11.5 mph - N/A   Overcast
7:35 AM 29.1 °F 17.5 °F 25.7 °F 87% 30.39 in 10.0 mi North 16.1 mph - N/A   Overcast
7:55 AM 28.9 °F 17.7 °F 25.7 °F 88% 30.40 in 10.0 mi North 15.0 mph - N/A   Overcast
8:15 AM 28.8 °F 18.4 °F 25.3 °F 87% 30.41 in 10.0 mi North 12.7 mph 18.4 mph N/A   Overcast
8:35 AM 28.4 °F 18.0 °F 25.3 °F 88% 30.42 in 10.0 mi North 12.7 mph 18.4 mph N/A   Overcast
8:55 AM 28.2 °F 16.8 °F 24.8 °F 87% 30.42 in 10.0 mi North 15.0 mph 20.7 mph N/A   Overcast
9:15 AM 28.4 °F 16.6 °F 24.8 °F 86% 30.43 in 10.0 mi North 16.1 mph 20.7 mph N/A   Overcast
9:35 AM 28.4 °F 18.0 °F 24.8 °F 86% 30.43 in 10.0 mi North 12.7 mph 18.4 mph N/A   Overcast
9:55 AM 28.0 °F 16.5 °F 24.1 °F 85% 30.44 in 10.0 mi North 15.0 mph 18.4 mph N/A   Overcast
10:15 AM 27.7 °F 17.6 °F 24.1 °F 86% 30.44 in 10.0 mi North 11.5 mph 17.3 mph N/A   Overcast
10:35 AM 27.5 °F 17.4 °F 24.1 °F 87% 30.45 in 10.0 mi North 11.5 mph 17.3 mph N/A   Overcast
10:55 AM 27.3 °F 16.6 °F 23.9 °F 87% 30.46 in 10.0 mi North 12.7 mph 18.4 mph N/A Snow Light Snow
11:15 AM 27.1 °F 16.4 °F 23.7 °F 87% 30.46 in 10.0 mi North 12.7 mph 17.3 mph N/A   Overcast
11:35 AM 27.0 °F 15.2 °F 23.4 °F 86% 30.47 in 10.0 mi North 15.0 mph 19.6 mph N/A   Overcast
11:55 AM 26.8 °F 14.9 °F 23.2 °F 86% 30.47 in 10.0 mi North 15.0 mph 19.6 mph N/A   Overcast
12:15 PM 26.6 °F 15.7 °F 23.0 °F 86% 30.48 in 10.0 mi North 12.7 mph 19.6 mph N/A   Overcast
12:55 PM 26.6 °F 15.2 °F 23.2 °F 87% 30.47 in 10.0 mi North 13.8 mph 18.4 mph N/A   Overcast
1:15 PM 26.6 °F 14.7 °F 23.0 °F 86% 30.47 in 10.0 mi North 15.0 mph 20.7 mph N/A   Overcast
1:55 PM 26.1 °F 14.0 °F 22.8 °F 88% 30.47 in 10.0 mi North 15.0 mph 20.7 mph N/A   Overcast
2:15 PM 25.7 °F 15.1 °F 22.1 °F 86% 30.47 in 10.0 mi North 11.5 mph 19.6 mph N/A   Overcast
2:35 PM 25.7 °F 13.5 °F 21.7 °F 85% 30.47 in 10.0 mi North 15.0 mph 19.6 mph N/A   Overcast
2:55 PM 25.7 °F 14.6 °F 21.2 °F 83% 30.47 in 10.0 mi North 12.7 mph 19.6 mph N/A   Overcast
3:15 PM 26.2 °F 16.4 °F 21.4 °F 82% 30.47 in 10.0 mi North 10.4 mph - N/A   Overcast
3:35 PM 26.1 °F 15.0 °F 21.0 °F 81% 30.48 in 10.0 mi North 12.7 mph 19.6 mph N/A   Overcast
3:55 PM 26.1 °F 14.5 °F 20.8 °F 81% 30.48 in 10.0 mi North 13.8 mph - N/A   Overcast
4:15 PM 25.7 °F 14.6 °F 20.3 °F 80% 30.48 in 10.0 mi North 12.7 mph 17.3 mph N/A   Overcast
4:35 PM 25.5 °F 16.2 °F 20.3 °F 81% 30.49 in 10.0 mi North 9.2 mph - N/A   Overcast
4:55 PM 25.5 °F 16.2 °F 20.3 °F 81% 30.49 in 10.0 mi North 9.2 mph - N/A   Overcast
5:15 PM 25.7 °F 16.4 °F 20.3 °F 80% 30.49 in 10.0 mi North 9.2 mph - N/A   Overcast
5:35 PM 25.7 °F 15.7 °F 20.3 °F 80% 30.49 in 10.0 mi North 10.4 mph - N/A   Overcast
5:55 PM 25.5 °F 15.5 °F 20.1 °F 80% 30.49 in 10.0 mi North 10.4 mph - N/A   Overcast
6:15 PM 25.2 °F 17.3 °F 19.4 °F 79% 30.49 in 10.0 mi North 6.9 mph - N/A   Overcast
6:35 PM 25.2 °F 17.3 °F 19.4 °F 79% 30.49 in 10.0 mi North 6.9 mph - N/A   Overcast
6:55 PM 25.2 °F 18.3 °F 19.2 °F 78% 30.50 in 10.0 mi North 5.8 mph - N/A   Overcast
7:15 PM 25.2 °F 18.3 °F 19.2 °F 78% 30.50 in 10.0 mi North 5.8 mph - N/A   Overcast
7:35 PM 25.2 °F 18.3 °F 19.2 °F 78% 30.50 in 10.0 mi NNW 5.8 mph - N/A   Overcast
7:55 PM 24.8 °F 14.6 °F 19.0 °F 79% 30.51 in 10.0 mi NNW 10.4 mph - N/A   Overcast
8:15 PM 24.8 °F 19.1 °F 19.2 °F 79% 30.51 in 10.0 mi NNW 4.6 mph - N/A   Overcast
8:35 PM 24.6 °F 18.8 °F 19.0 °F 79% 30.51 in 10.0 mi NNW 4.6 mph - N/A   Overcast
8:55 PM 24.8 °F 19.1 °F 19.2 °F 79% 30.51 in 10.0 mi NNW 4.6 mph - N/A   Overcast
9:15 PM 24.8 °F 17.9 °F 19.4 °F 80% 30.51 in 10.0 mi NNW 5.8 mph - N/A   Overcast
9:35 PM 24.8 °F 17.9 °F 19.8 °F 81% 30.51 in 10.0 mi NNW 5.8 mph - N/A   Overcast
9:55 PM 24.8 °F 17.9 °F 19.6 °F 81% 30.51 in 10.0 mi NNW 5.8 mph - N/A   Overcast
10:15 PM 24.4 °F 16.5 °F 19.4 °F 81% 30.51 in 10.0 mi NNW 6.9 mph - N/A   Overcast
10:35 PM 24.1 °F 18.2 °F 19.2 °F 82% 30.51 in 10.0 mi NNW 4.6 mph - N/A   Overcast
10:55 PM 24.4 °F 13.0 °F 18.5 °F 78% 30.51 in 10.0 mi North 12.7 mph - N/A   Overcast
11:15 PM 24.3 °F 13.3 °F 18.5 °F 79% 30.51 in 10.0 mi North 11.5 mph - N/A   Overcast
11:35 PM 24.3 °F 15.4 °F 18.3 °F 78% 30.51 in 10.0 mi North 8.1 mph - N/A   Overcast
11:55 PM 23.9 °F 12.9 °F 18.3 °F 79% 30.51 in 10.0 mi North 11.5 mph - N/A   Mostly Cloudy